Time,TemperatureF,DewpointF,PressureIn,WindDirection,WindDirectionDegrees,WindSpeedMPH,WindSpeedGustMPH,Humidity,HourlyPrecipIn,Conditions,Clouds,dailyrainin,SoftwareType,DateUTC
2013-07-30 00:03:00,54.0,49.0,30.09,SE,135,0.0,0.0,83,0.00,,,0.00,,2013-07-30 04:03:00,
2013-07-30 00:13:00,54.0,49.0,30.09,SE,135,0.0,0.0,83,0.00,,,0.00,,2013-07-30 04:13:00,
2013-07-30 00:23:00,53.0,48.0,30.09,SE,135,0.0,0.0,84,0.00,,,0.00,,2013-07-30 04:23:00,
2013-07-30 00:33:00,53.0,48.0,30.09,SE,135,0.0,0.0,84,0.00,,,0.00,,2013-07-30 04:33:00,
2013-07-30 00:43:00,53.0,48.0,30.08,SE,135,0.0,0.0,84,0.00,,,0.00,,2013-07-30 04:43:00,
2013-07-30 00:53:00,53.0,48.0,30.08,SE,135,0.0,0.0,84,0.00,,,0.00,,2013-07-30 04:53:00,
2013-07-30 01:03:00,53.0,48.0,30.08,SE,135,0.0,0.0,84,0.00,,,0.00,,2013-07-30 05:03:00,
2013-07-30 01:13:00,53.0,48.0,30.08,SE,135,0.0,0.0,84,0.00,,,0.00,,2013-07-30 05:13:00,
2013-07-30 01:23:00,53.0,49.0,30.09,North,0,0.0,0.0,85,0.00,,,0.00,,2013-07-30 05:23:00,
2013-07-30 01:33:00,52.0,48.0,30.09,North,0,0.0,0.0,85,0.00,,,0.00,,2013-07-30 05:33:00,
2013-07-30 01:45:00,52.0,48.0,30.09,North,0,0.0,0.0,85,0.00,,,0.00,,2013-07-30 05:45:00,
2013-07-30 01:53:00,52.0,48.0,30.09,North,359,0.0,0.0,85,0.00,,,0.00,,2013-07-30 05:53:00,
2013-07-30 02:03:00,52.0,48.0,30.09,NNW,338,0.0,0.0,85,0.00,,,0.00,,2013-07-30 06:03:00,
2013-07-30 02:13:00,52.0,48.0,30.09,NNW,338,0.0,0.0,85,0.00,,,0.00,,2013-07-30 06:13:00,
2013-07-30 02:23:00,52.0,48.0,30.09,North,0,0.0,0.0,85,0.00,,,0.00,,2013-07-30 06:23:00,
2013-07-30 02:33:00,52.0,48.0,30.08,NE,45,0.0,0.0,85,0.00,,,0.00,,2013-07-30 06:33:00,
2013-07-30 02:43:00,52.0,48.0,30.08,NE,45,0.0,0.0,85,0.00,,,0.00,,2013-07-30 06:43:00,
2013-07-30 02:53:00,52.0,48.0,30.07,NNW,338,0.0,0.0,86,0.00,,,0.00,,2013-07-30 06:53:00,
2013-07-30 03:03:00,52.0,48.0,30.08,NNW,338,0.0,0.0,86,0.00,,,0.00,,2013-07-30 07:03:00,
2013-07-30 03:13:00,52.0,48.0,30.08,NNW,338,0.0,0.0,86,0.00,,,0.00,,2013-07-30 07:13:00,
2013-07-30 03:23:00,53.0,49.0,30.07,ENE,68,0.0,0.0,86,0.00,,,0.00,,2013-07-30 07:23:00,
2013-07-30 03:33:00,53.0,49.0,30.07,SSE,163,0.0,0.0,87,0.00,,,0.00,,2013-07-30 07:33:00,
2013-07-30 03:43:00,53.0,49.0,30.07,SSE,163,0.0,0.0,87,0.00,,,0.00,,2013-07-30 07:43:00,
2013-07-30 03:53:00,56.0,52.0,30.06,SSE,154,0.0,1.0,85,0.00,,,0.00,,2013-07-30 07:53:00,
2013-07-30 04:03:00,57.0,52.0,30.06,SSE,158,0.0,1.0,82,0.00,,,0.00,,2013-07-30 08:03:00,
2013-07-30 04:13:00,57.0,52.0,30.06,SSE,158,0.0,1.0,82,0.00,,,0.00,,2013-07-30 08:13:00,
2013-07-30 04:23:00,57.0,51.0,30.07,WSW,248,0.0,0.0,81,0.00,,,0.00,,2013-07-30 08:23:00,
2013-07-30 04:33:00,57.0,52.0,30.06,WSW,248,0.0,0.0,82,0.00,,,0.00,,2013-07-30 08:33:00,
2013-07-30 04:43:00,57.0,52.0,30.06,WSW,248,0.0,0.0,82,0.00,,,0.00,,2013-07-30 08:43:00,
2013-07-30 04:53:00,56.0,51.0,30.06,South,180,0.0,0.0,83,0.00,,,0.00,,2013-07-30 08:53:00,
2013-07-30 05:03:00,56.0,51.0,30.06,SE,135,0.0,0.0,83,0.00,,,0.00,,2013-07-30 09:03:00,
2013-07-30 05:13:00,56.0,51.0,30.06,SE,135,0.0,0.0,83,0.00,,,0.00,,2013-07-30 09:13:00,
2013-07-30 05:23:00,56.0,51.0,30.06,NW,308,0.0,0.0,84,0.00,,,0.00,,2013-07-30 09:23:00,
2013-07-30 05:33:00,55.0,51.0,30.06,NNW,338,0.0,0.0,85,0.00,,,0.00,,2013-07-30 09:33:00,
2013-07-30 05:43:00,55.0,51.0,30.06,NNW,338,0.0,0.0,85,0.00,,,0.00,,2013-07-30 09:43:00,
2013-07-30 05:53:00,56.0,52.0,30.06,WSW,248,0.0,0.0,85,0.00,,,0.00,,2013-07-30 09:53:00,
2013-07-30 06:03:00,56.0,52.0,30.06,WSW,248,0.0,0.0,85,0.00,,,0.00,,2013-07-30 10:03:00,
2013-07-30 06:12:00,56.0,52.0,30.06,WSW,248,0.0,0.0,85,0.00,,,0.00,,2013-07-30 10:12:00,
2013-07-30 06:23:00,56.0,52.0,30.06,WSW,248,0.0,0.0,85,0.00,,,0.00,,2013-07-30 10:23:00,
2013-07-30 06:32:00,57.0,53.0,30.07,West,270,0.0,0.0,85,0.00,,,0.00,,2013-07-30 10:32:00,
2013-07-30 06:44:00,57.0,53.0,30.07,West,270,0.0,0.0,85,0.00,,,0.00,,2013-07-30 10:44:00,
2013-07-30 06:52:00,57.0,53.0,30.07,West,270,0.0,0.0,85,0.00,,,0.00,,2013-07-30 10:52:00,
2013-07-30 07:02:00,57.0,53.0,30.07,West,270,0.0,0.0,85,0.00,,,0.00,,2013-07-30 11:02:00,
2013-07-30 07:11:00,57.0,53.0,30.07,West,270,0.0,0.0,85,0.00,,,0.00,,2013-07-30 11:11:00,
2013-07-30 07:22:00,57.0,53.0,30.07,WNW,292,0.0,35.0,85,0.00,,,0.00,,2013-07-30 11:22:00,
2013-07-30 07:33:00,58.0,53.0,30.07,WSW,255,0.0,0.0,84,0.00,,,0.00,,2013-07-30 11:33:00,
2013-07-30 07:43:00,58.0,53.0,30.07,WSW,255,0.0,0.0,84,0.00,,,0.00,,2013-07-30 11:43:00,
2013-07-30 07:53:00,59.0,54.0,30.07,SW,228,1.0,49.0,83,0.00,,,0.00,,2013-07-30 11:53:00,
2013-07-30 08:12:00,60.0,55.0,30.08,South,175,0.0,49.0,83,0.00,,,0.00,,2013-07-30 12:12:00,
2013-07-30 08:22:00,60.0,54.0,30.08,ESE,106,0.0,0.0,82,0.00,,,0.00,,2013-07-30 12:22:00,
2013-07-30 08:33:00,61.0,55.0,30.08,WNW,292,0.0,0.0,82,0.00,,,0.00,,2013-07-30 12:33:00,
2013-07-30 08:42:00,61.0,55.0,30.08,WNW,292,0.0,0.0,82,0.00,,,0.00,,2013-07-30 12:42:00,
2013-07-30 08:53:00,62.0,56.0,30.08,WNW,298,0.0,16.0,82,0.00,,,0.00,,2013-07-30 12:53:00,
2013-07-30 09:02:00,62.0,56.0,30.08,NW,311,0.0,0.0,82,0.00,,,0.00,,2013-07-30 13:02:00,
2013-07-30 09:12:00,62.0,56.0,30.08,NW,311,0.0,0.0,82,0.00,,,0.00,,2013-07-30 13:12:00,
2013-07-30 09:22:00,62.0,56.0,30.08,NW,326,0.0,0.0,82,0.00,,,0.00,,2013-07-30 13:22:00,
2013-07-30 09:32:00,63.0,57.0,30.07,WNW,292,0.0,0.0,82,0.00,,,0.00,,2013-07-30 13:32:00,
2013-07-30 09:43:00,63.0,57.0,30.07,WNW,292,0.0,0.0,82,0.00,,,0.00,,2013-07-30 13:43:00,
2013-07-30 09:52:00,64.0,58.0,30.08,NW,307,0.0,0.0,80,0.00,,,0.00,,2013-07-30 13:52:00,
2013-07-30 10:02:00,66.0,59.0,30.07,NW,307,0.0,0.0,78,0.00,,,0.00,,2013-07-30 14:02:00,
2013-07-30 10:12:00,66.0,59.0,30.07,NW,307,0.0,0.0,78,0.00,,,0.00,,2013-07-30 14:12:00,
2013-07-30 10:22:00,68.0,60.0,30.08,NNW,330,0.0,0.0,75,0.00,,,0.00,,2013-07-30 14:22:00,
2013-07-30 10:33:00,69.0,60.0,30.09,SW,233,0.0,0.0,73,0.00,,,0.00,,2013-07-30 14:33:00,
2013-07-30 10:43:00,69.0,60.0,30.09,SW,233,0.0,0.0,73,0.00,,,0.00,,2013-07-30 14:43:00,
2013-07-30 10:53:00,69.0,59.0,30.09,WNW,290,0.0,0.0,71,0.00,,,0.00,,2013-07-30 14:53:00,
2013-07-30 11:02:00,71.0,60.0,30.08,WNW,292,0.0,0.0,69,0.00,,,0.00,,2013-07-30 15:02:00,
2013-07-30 11:12:00,71.0,60.0,30.08,WNW,292,0.0,0.0,69,0.00,,,0.00,,2013-07-30 15:12:00,
2013-07-30 11:23:00,73.0,61.0,30.08,West,274,0.0,0.0,65,0.00,,,0.00,,2013-07-30 15:23:00,
2013-07-30 11:33:00,74.0,61.0,30.08,West,261,1.0,15.0,63,0.00,,,0.00,,2013-07-30 15:33:00,
2013-07-30 11:43:00,74.0,61.0,30.08,West,261,1.0,15.0,63,0.00,,,0.00,,2013-07-30 15:43:00,
2013-07-30 11:53:00,73.0,60.0,30.08,NW,315,0.0,15.0,64,0.00,,,0.00,,2013-07-30 15:53:00,
2013-07-30 12:02:00,75.0,62.0,30.07,West,274,0.0,3.0,63,0.00,,,0.00,,2013-07-30 16:02:00,
2013-07-30 12:12:00,75.0,62.0,30.07,West,274,0.0,3.0,63,0.00,,,0.00,,2013-07-30 16:12:00,
2013-07-30 12:23:00,75.0,62.0,30.07,WSW,257,0.0,1.0,63,0.00,,,0.00,,2013-07-30 16:23:00,
2013-07-30 12:33:00,77.0,62.0,30.07,WNW,287,1.0,8.0,59,0.00,,,0.00,,2013-07-30 16:33:00,
2013-07-30 12:44:00,77.0,62.0,30.07,WNW,287,1.0,8.0,59,0.00,,,0.00,,2013-07-30 16:44:00,
2013-07-30 12:52:00,77.0,61.0,30.07,WSW,239,0.0,2.0,57,0.00,,,0.00,,2013-07-30 16:52:00,
2013-07-30 13:02:00,77.0,61.0,30.07,SW,235,0.0,1.0,57,0.00,,,0.00,,2013-07-30 17:02:00,
2013-07-30 13:12:00,77.0,61.0,30.07,SW,235,0.0,1.0,57,0.00,,,0.00,,2013-07-30 17:12:00,
2013-07-30 13:22:00,76.0,60.0,30.07,South,180,0.0,1.0,58,0.00,,,0.00,,2013-07-30 17:22:00,
2013-07-30 13:32:00,75.0,61.0,30.07,North,356,0.0,0.0,61,0.00,,,0.00,,2013-07-30 17:32:00,
2013-07-30 13:43:00,75.0,61.0,30.07,North,356,0.0,0.0,61,0.00,,,0.00,,2013-07-30 17:43:00,
2013-07-30 13:54:00,74.0,60.0,30.07,ESE,113,0.0,1.0,62,0.00,,,0.00,,2013-07-30 17:54:00,
2013-07-30 14:03:00,72.0,59.0,30.06,WSW,251,0.0,1.0,63,0.00,,,0.00,,2013-07-30 18:03:00,
2013-07-30 14:12:00,72.0,59.0,30.06,WSW,251,0.0,1.0,63,0.00,,,0.00,,2013-07-30 18:12:00,
2013-07-30 14:23:00,72.0,60.0,30.06,SSE,157,0.0,2.0,65,0.00,,,0.00,,2013-07-30 18:23:00,
2013-07-30 14:32:00,72.0,60.0,30.06,ESE,112,0.0,1.0,67,0.00,,,0.00,,2013-07-30 18:32:00,
2013-07-30 14:43:00,72.0,60.0,30.06,ESE,112,0.0,1.0,67,0.00,,,0.00,,2013-07-30 18:43:00,
2013-07-30 14:52:00,72.0,60.0,30.06,WNW,292,0.0,1.0,67,0.00,,,0.00,,2013-07-30 18:52:00,
2013-07-30 15:12:00,73.0,60.0,30.05,East,90,0.0,2.0,63,0.00,,,0.00,,2013-07-30 19:12:00,
2013-07-30 15:22:00,73.0,60.0,30.05,SSE,158,1.0,1.0,63,0.00,,,0.00,,2013-07-30 19:22:00,
2013-07-30 15:33:00,72.0,58.0,30.05,SE,134,0.0,1.0,62,0.00,,,0.00,,2013-07-30 19:33:00,
2013-07-30 15:44:00,72.0,58.0,30.05,SE,134,0.0,1.0,62,0.00,,,0.00,,2013-07-30 19:44:00,
2013-07-30 15:52:00,72.0,59.0,30.05,SSE,158,0.0,5.0,64,0.00,,,0.00,,2013-07-30 19:52:00,
2013-07-30 16:02:00,72.0,61.0,30.04,SE,135,0.0,1.0,68,0.00,,,0.00,,2013-07-30 20:02:00,
2013-07-30 16:12:00,72.0,61.0,30.04,SE,135,0.0,1.0,68,0.00,,,0.00,,2013-07-30 20:12:00,
2013-07-30 16:22:00,71.0,60.0,30.04,ESE,112,0.0,2.0,68,0.00,,,0.00,,2013-07-30 20:22:00,
2013-07-30 16:33:00,70.0,59.0,30.03,South,180,2.0,2.0,69,0.00,,,0.00,,2013-07-30 20:33:00,
2013-07-30 16:43:00,70.0,59.0,30.03,South,180,2.0,2.0,69,0.00,,,0.00,,2013-07-30 20:43:00,
2013-07-30 16:52:00,70.0,59.0,30.03,South,180,2.0,2.0,69,0.00,,,0.00,,2013-07-30 20:52:00,
2013-07-30 17:02:00,69.0,59.0,30.03,SSE,158,1.0,1.0,70,0.00,,,0.00,,2013-07-30 21:02:00,
2013-07-30 17:12:00,69.0,59.0,30.03,SSE,158,1.0,1.0,70,0.00,,,0.00,,2013-07-30 21:12:00,
2013-07-30 17:22:00,69.0,60.0,30.03,SE,135,0.0,0.0,72,0.00,,,0.00,,2013-07-30 21:22:00,
2013-07-30 17:32:00,68.0,59.0,30.03,ESE,104,10.0,51.0,73,0.00,,,0.00,,2013-07-30 21:32:00,
2013-07-30 17:42:00,68.0,59.0,30.03,ESE,104,10.0,51.0,73,0.00,,,0.00,,2013-07-30 21:42:00,
2013-07-30 17:53:00,68.0,59.0,30.03,SSE,158,0.0,51.0,73,0.00,,,0.00,,2013-07-30 21:53:00,
2013-07-30 18:02:00,67.0,59.0,30.03,SSE,158,0.0,1.0,75,0.00,,,0.00,,2013-07-30 22:02:00,
2013-07-30 18:12:00,67.0,59.0,30.03,SSE,158,0.0,1.0,75,0.00,,,0.00,,2013-07-30 22:12:00,
2013-07-30 18:22:00,67.0,59.0,30.04,South,180,0.0,0.0,76,0.00,,,0.00,,2013-07-30 22:22:00,
2013-07-30 18:32:00,67.0,59.0,30.04,SW,225,0.0,1.0,75,0.00,,,0.00,,2013-07-30 22:32:00,
2013-07-30 18:43:00,67.0,59.0,30.04,SW,225,0.0,1.0,75,0.00,,,0.00,,2013-07-30 22:43:00,
2013-07-30 18:53:00,67.0,59.0,30.03,SE,135,28.0,52.0,75,0.00,,,0.00,,2013-07-30 22:53:00,
2013-07-30 19:02:00,67.0,59.0,30.03,SE,135,0.0,53.0,75,0.00,,,0.00,,2013-07-30 23:02:00,
2013-07-30 19:12:00,67.0,59.0,30.03,SE,135,0.0,53.0,75,0.00,,,0.00,,2013-07-30 23:12:00,
2013-07-30 19:22:00,66.0,59.0,30.03,South,179,3.0,3.0,77,0.00,,,0.00,,2013-07-30 23:22:00,
2013-07-30 19:32:00,66.0,59.0,30.02,SSE,159,0.0,3.0,77,0.00,,,0.00,,2013-07-30 23:32:00,
2013-07-30 19:42:00,66.0,59.0,30.02,SSE,159,0.0,3.0,77,0.00,,,0.00,,2013-07-30 23:42:00,
2013-07-30 19:53:00,67.0,60.0,30.03,SSE,157,0.0,1.0,77,0.00,,,0.00,,2013-07-30 23:53:00,
2013-07-30 20:01:00,67.0,60.0,30.01,SE,135,1.0,1.0,78,0.00,,,0.00,,2013-07-31 00:01:00,
2013-07-30 20:02:00,67.0,60.0,30.02,SSE,158,1.0,1.0,78,0.00,,,0.00,,2013-07-31 00:02:00,
2013-07-30 20:12:00,67.0,60.0,30.02,SSE,158,1.0,1.0,78,0.00,,,0.00,,2013-07-31 00:12:00,
2013-07-30 20:22:00,67.0,60.0,30.01,SE,135,1.0,1.0,78,0.00,,,0.00,,2013-07-31 00:22:00,
2013-07-30 20:32:00,67.0,60.0,30.01,SE,135,1.0,1.0,78,0.00,,,0.00,,2013-07-31 00:32:00,
2013-07-30 20:43:00,67.0,60.0,30.01,SE,135,1.0,1.0,78,0.00,,,0.00,,2013-07-31 00:43:00,
2013-07-30 20:53:00,67.0,60.0,30.01,SE,135,1.0,1.0,78,0.00,,,0.00,,2013-07-31 00:53:00,
2013-07-30 22:12:00,65.0,59.0,30.01,East,90,0.0,0.0,80,0.00,,,0.00,,2013-07-31 02:12:00,
2013-07-30 22:22:00,65.0,59.0,30.01,East,90,0.0,0.0,80,0.00,,,0.00,,2013-07-31 02:22:00,
2013-07-30 22:32:00,65.0,59.0,30.01,East,90,0.0,0.0,80,0.00,,,0.00,,2013-07-31 02:32:00,
2013-07-30 22:52:00,65.0,59.0,30.01,East,90,0.0,0.0,80,0.00,,,0.00,,2013-07-31 02:52:00,
2013-07-30 23:02:00,64.0,59.0,30.01,SE,135,0.0,0.0,83,0.00,,,0.00,,2013-07-31 03:02:00,
2013-07-30 23:12:00,64.0,59.0,30.01,SE,135,0.0,0.0,83,0.00,,,0.00,,2013-07-31 03:12:00,
2013-07-30 23:22:00,64.0,59.0,30.01,SE,135,0.0,0.0,83,0.00,,,0.00,,2013-07-31 03:22:00,
2013-07-30 23:32:00,64.0,59.0,30.01,SE,135,0.0,0.0,83,0.00,,,0.00,,2013-07-31 03:32:00,